Weather History for Moose Lake, MN

Change the Weather History Date:

Thursday, February 21, 2013

  Actual Average Record
Temperature  
Mean Temperature 6 °F -  
Max Temperature 24 °F 31 °F 55 °F (1961)
Min Temperature -13 °F 7 °F -28 °F (1963)
Degree Days  
Heating Degree Days 60    
Moisture  
Dew Point -1 °F    
Average Humidity 62    
Maximum Humidity 80    
Minimum Humidity 43    
Precipitation  
Precipitation 0.00 in - - ()
Sea Level Pressure  
Sea Level Pressure 30.33 in    
Wind  
Wind Speed 0 mph (NE)    
Max Wind Speed 10 mph    
Max Gust Speed 16 mph    
Visibility 10 miles    
Events Snow    
Averages and records for this station are not official NWS values.
T = Trace of Precipitation, MM = Missing Value Source: NWS Daily Summary

Daily Weather History Graph

Daily Weather History Graph

Search for Another Location

Airport:

Trip Planner

Search our weather history database for the weather conditions in past years. The results will help you decide how hot, cold, wet, or windy it might be!

Date:

Astronomy

Feb. 21, 2013 Rise Set
Actual Time 7:04 AM CST 5:46 PM CST
Civil Twilight 6:33 AM CST 6:16 PM CST
Nautical Twilight 5:58 AM CST 6:51 PM CST
Astronomical Twilight 5:23 AM CST 7:26 PM CST
Moon 1:52 PM CST 4:18 AM CST
Length of Visible Light 11h 43m
Length of Day
10h 41m
Waxing Gibbous, 84% of the Moon is Illuminated
Feb 21
Waxing Gibbous
Feb 25
Full
Mar 4
Last Quarter
Mar 11
New
Mar 19
First Quarter

Hourly Weather History & Observations

Time (CST) Temp. Windchill Dew Point Humidity Pressure Visibility Wind Dir Wind Speed Gust Speed Precip Events Conditions
12:12 AM 1.4 °F - -13.0 °F 51% 30.40 in 10.0 mi Calm Calm - N/A   Scattered Clouds
12:32 AM -0.4 °F - -13.0 °F 55% 30.41 in 10.0 mi Calm Calm - N/A   Scattered Clouds
12:52 AM -4.0 °F - -14.8 °F 60% 30.41 in 10.0 mi Calm Calm - N/A   Scattered Clouds
1:12 AM -4.0 °F - -13.0 °F 65% 30.41 in 10.0 mi Calm Calm - N/A   Scattered Clouds
1:32 AM -2.2 °F - -11.2 °F 66% 30.41 in 10.0 mi Calm Calm - N/A   Scattered Clouds
1:52 AM -4.0 °F - -14.8 °F 60% 30.41 in 10.0 mi Calm Calm - N/A   Scattered Clouds
2:12 AM -2.2 °F - -9.4 °F 71% 30.40 in 10.0 mi Calm Calm - N/A   Clear
2:32 AM -7.6 °F - -16.6 °F 65% 30.40 in 10.0 mi Calm Calm - N/A   Scattered Clouds
2:52 AM -7.6 °F - -16.6 °F 65% 30.40 in 10.0 mi Calm Calm - N/A   Clear
3:12 AM -7.6 °F - -16.6 °F 65% 30.40 in 10.0 mi Calm Calm - N/A   Clear
3:32 AM -7.6 °F - -16.6 °F 65% 30.41 in 10.0 mi Calm Calm - N/A   Clear
3:52 AM -7.6 °F - -16.6 °F 65% 30.42 in 10.0 mi Calm Calm - N/A   Clear
4:12 AM -9.4 °F - -18.4 °F 65% 30.43 in 10.0 mi Calm Calm - N/A   Clear
4:32 AM -9.4 °F - -18.4 °F 65% 30.43 in 10.0 mi Calm Calm - N/A   Clear
4:52 AM -11.2 °F - -20.2 °F 64% 30.43 in 10.0 mi Calm Calm - N/A   Clear
5:12 AM -11.2 °F - -20.2 °F 64% 30.43 in 10.0 mi Calm Calm - N/A   Clear
5:32 AM -13.0 °F - -22.0 °F 64% 30.43 in 10.0 mi Calm Calm - N/A   Clear
5:52 AM -13.0 °F - -22.0 °F 64% 30.42 in 10.0 mi Calm Calm - N/A   Clear
6:12 AM -13.0 °F - -22.0 °F 64% 30.41 in 10.0 mi Calm Calm - N/A   Clear
6:32 AM -9.4 °F - -18.4 °F 65% 30.40 in 10.0 mi Calm Calm - N/A   Clear
6:52 AM -9.4 °F - -18.4 °F 65% 30.36 in 10.0 mi Calm Calm - N/A   Clear
7:12 AM -7.6 °F - -16.6 °F 65% 30.34 in 10.0 mi Calm Calm - N/A   Clear
7:32 AM -7.6 °F - -16.6 °F 65% 30.34 in 10.0 mi Calm Calm - N/A   Clear
7:52 AM -4.0 °F - -13.0 °F 65% 30.36 in 10.0 mi Calm Calm - N/A   Clear
8:12 AM -4.0 °F - -13.0 °F 65% 30.44 in 10.0 mi Calm Calm - N/A   Clear
8:32 AM -0.4 °F - -9.4 °F 66% 30.46 in 10.0 mi Calm Calm - N/A   Mostly Cloudy
8:52 AM 1.4 °F - -7.6 °F 66% 30.46 in 7.0 mi Calm Calm - N/A Snow Light Snow
9:12 AM 3.2 °F - -7.6 °F 61% 30.43 in 7.0 mi Calm Calm - N/A Snow Light Snow
9:32 AM 5.0 °F - -5.8 °F 61% 30.42 in 7.0 mi Calm Calm - N/A Snow Light Snow
9:52 AM 8.6 °F - -4.0 °F 57% 30.41 in 5.0 mi Calm Calm - N/A Snow Light Snow
10:12 AM 12.2 °F - -0.4 °F 57% 30.41 in 10.0 mi Calm Calm - N/A Snow Light Snow
10:32 AM 17.6 °F - 3.2 °F 53% 30.39 in 7.0 mi Calm Calm - N/A Snow Light Snow
10:52 AM 17.6 °F - 3.2 °F 53% 30.38 in 10.0 mi Calm Calm - N/A   Overcast
11:12 AM 19.4 °F - 5.0 °F 54% 30.38 in 10.0 mi Calm Calm - N/A   Scattered Clouds
11:32 AM 21.2 °F - 5.0 °F 50% 30.39 in 10.0 mi Calm Calm - N/A   Clear
11:52 AM 21.2 °F - 5.0 °F 50% 30.38 in 10.0 mi Calm Calm - N/A   Clear
12:12 PM 21.2 °F - 3.2 °F 46% 30.37 in 10.0 mi Calm Calm - N/A   Clear
12:32 PM 23.0 °F - 3.2 °F 43% 30.35 in 10.0 mi Calm Calm - N/A   Clear
12:52 PM 23.0 °F - 3.2 °F 43% 30.35 in 10.0 mi Calm Calm - N/A   Clear
1:12 PM 23.0 °F - 5.0 °F 46% 30.34 in 10.0 mi Calm Calm - N/A   Clear
1:32 PM 23.0 °F - 5.0 °F 46% 30.33 in 10.0 mi Calm Calm - N/A   Clear
1:52 PM 23.0 °F - 5.0 °F 46% 30.31 in 10.0 mi Calm Calm - N/A   Clear
2:12 PM 24.8 °F - 5.0 °F 43% 30.30 in 10.0 mi Calm Calm - N/A   Clear
2:32 PM 24.8 °F - 5.0 °F 43% 30.29 in 10.0 mi Calm Calm - N/A   Clear
2:52 PM 24.8 °F 19.1 °F 5.0 °F 43% 30.29 in 10.0 mi ENE 4.6 mph - N/A   Clear
3:12 PM 23.0 °F 14.7 °F 6.8 °F 50% 30.28 in 10.0 mi NE 6.9 mph - N/A   Clear
3:32 PM 23.0 °F 14.7 °F 6.8 °F 50% 30.28 in 10.0 mi NE 6.9 mph 16.1 mph N/A   Clear
3:52 PM 23.0 °F 12.4 °F 8.6 °F 54% 30.29 in 10.0 mi NE 10.4 mph 16.1 mph N/A   Scattered Clouds
4:32 PM 21.2 °F - 8.6 °F 58% 30.28 in 10.0 mi Calm Calm - N/A   Scattered Clouds
4:52 PM 21.2 °F 16.4 °F 10.4 °F 63% 30.28 in 10.0 mi ENE 3.5 mph - N/A   Mostly Cloudy
5:12 PM 21.2 °F - 10.4 °F 63% 30.27 in 10.0 mi Calm Calm - N/A   Overcast
5:32 PM 21.2 °F - 10.4 °F 63% 30.28 in 10.0 mi Calm Calm - N/A   Overcast
5:52 PM 21.2 °F - 10.4 °F 63% 30.26 in 10.0 mi Calm Calm - N/A   Overcast
6:12 PM 21.2 °F - 10.4 °F 63% 30.25 in 10.0 mi Calm Calm - N/A   Overcast
6:32 PM 21.2 °F - 12.2 °F 68% 30.24 in 10.0 mi Calm Calm - N/A   Overcast
6:52 PM 21.2 °F - 12.2 °F 68% 30.25 in 10.0 mi Calm Calm - N/A   Overcast
7:12 PM 21.2 °F - 12.2 °F 68% 30.24 in 10.0 mi Calm Calm - N/A   Overcast
7:32 PM 21.2 °F - 12.2 °F 68% 30.22 in 10.0 mi Calm Calm - N/A   Overcast
7:52 PM 21.2 °F - 12.2 °F 68% 30.21 in 10.0 mi Calm Calm - N/A   Overcast
8:12 PM 21.2 °F - 12.2 °F 68% 30.20 in 10.0 mi Calm Calm - N/A   Overcast
8:32 PM 21.2 °F - 14.0 °F 74% 30.20 in 10.0 mi Calm Calm - N/A   Overcast
8:52 PM 21.2 °F - 14.0 °F 74% 30.19 in 10.0 mi Calm Calm - N/A   Overcast
9:12 PM 21.2 °F 14.9 °F 14.0 °F 74% 30.18 in 10.0 mi ENE 4.6 mph - N/A   Overcast
9:32 PM 21.2 °F 13.6 °F 15.8 °F 80% 30.18 in 10.0 mi ENE 5.8 mph - N/A   Overcast
9:52 PM 21.2 °F - 15.8 °F 80% 30.17 in 10.0 mi Calm Calm - N/A   Overcast
10:12 PM 21.2 °F - 14.0 °F 74% 30.16 in 10.0 mi Calm Calm - N/A   Overcast
10:32 PM 21.2 °F - 14.0 °F 74% 30.15 in 10.0 mi Calm Calm - N/A   Overcast
10:52 PM 21.2 °F - 14.0 °F 74% 30.15 in 10.0 mi Calm Calm - N/A   Overcast
11:12 PM 23.0 °F - 15.8 °F 74% 30.14 in 10.0 mi Calm Calm - N/A   Overcast
11:32 PM 23.0 °F - 15.8 °F 74% 30.13 in 10.0 mi Calm Calm - N/A   Overcast
11:52 PM 23.0 °F - 17.6 °F 80% 30.12 in 10.0 mi Calm Calm - N/A   Overcast